Time,TemperatureF,DewpointF,PressureIn,WindDirection,WindDirectionDegrees,WindSpeedMPH,WindSpeedGustMPH,Humidity,HourlyPrecipIn,Conditions,Clouds,dailyrainin,SoftwareType,DateUTC
2013-04-03 00:00:00,28.5,19.3,30.12,West,264,3.8,5.8,68,0.00,SCT,,0.00,WeatherDisplay:10.37,2013-04-03 04:00:00,
2013-04-03 00:05:00,28.5,19.3,30.12,West,279,3.1,8.1,68,0.00,BKN,,0.00,WeatherDisplay:10.37,2013-04-03 04:05:00,
2013-04-03 00:10:00,28.8,19.6,30.12,WNW,293,6.9,11.5,68,0.00,BKN,,0.00,WeatherDisplay:10.37,2013-04-03 04:10:00,
2013-04-03 00:15:00,29.0,19.4,30.12,West,271,9.3,9.3,67,0.00,BKN,,0.00,WeatherDisplay:10.37,2013-04-03 04:15:00,
2013-04-03 00:20:00,29.1,19.5,30.12,West,271,8.0,11.5,67,0.00,BKN,,0.00,WeatherDisplay:10.37,2013-04-03 04:20:00,
2013-04-03 00:25:00,29.2,19.2,30.12,WNW,290,7.0,11.5,66,0.00,BKN,,0.00,WeatherDisplay:10.37,2013-04-03 04:25:00,
2013-04-03 00:30:00,29.2,19.2,30.12,West,275,4.8,11.5,66,0.00,BKN,,0.00,WeatherDisplay:10.37,2013-04-03 04:30:00,
2013-04-03 00:35:00,29.0,19.4,30.12,WNW,296,6.2,10.4,67,0.00,BKN,,0.00,WeatherDisplay:10.37,2013-04-03 04:35:00,
2013-04-03 00:40:00,28.9,19.3,30.12,West,267,6.0,8.1,67,0.00,BKN,,0.00,WeatherDisplay:10.37,2013-04-03 04:40:00,
2013-04-03 00:45:00,28.9,19.7,30.13,West,272,5.3,10.4,68,0.00,BKN,,0.00,WeatherDisplay:10.37,2013-04-03 04:45:00,
2013-04-03 00:50:00,29.0,19.8,30.13,WNW,297,5.4,8.1,68,0.00,BKN,,0.00,WeatherDisplay:10.37,2013-04-03 04:50:00,
2013-04-03 00:55:00,29.1,19.8,30.13,West,277,8.3,13.8,68,0.00,BKN,,0.00,WeatherDisplay:10.37,2013-04-03 04:55:00,
2013-04-03 01:00:00,29.1,19.8,30.12,WNW,288,7.9,9.2,68,0.00,BKN,,0.00,WeatherDisplay:10.37,2013-04-03 05:00:00,
2013-04-03 01:05:00,29.1,19.8,30.13,West,263,5.0,9.2,68,0.00,BKN,,0.00,WeatherDisplay:10.37,2013-04-03 05:05:00,
2013-04-03 01:10:00,29.0,19.8,30.13,WNW,291,2.9,5.8,68,0.00,BKN,,0.00,WeatherDisplay:10.37,2013-04-03 05:10:00,
2013-04-03 01:15:00,28.9,20.0,30.13,West,279,4.7,11.5,69,0.00,BKN,,0.00,WeatherDisplay:10.37,2013-04-03 05:15:00,
2013-04-03 01:20:00,28.9,20.0,30.13,WNW,288,6.5,8.1,69,0.00,BKN,,0.00,WeatherDisplay:10.37,2013-04-03 05:20:00,
2013-04-03 01:25:00,28.9,19.7,30.13,WNW,289,11.1,16.1,68,0.00,BKN,,0.00,WeatherDisplay:10.37,2013-04-03 05:25:00,
2013-04-03 01:30:00,28.9,19.7,30.13,WNW,283,6.5,11.5,68,0.00,BKN,,0.00,WeatherDisplay:10.37,2013-04-03 05:30:00,
2013-04-03 01:35:00,28.8,19.6,30.12,West,281,8.6,16.1,68,0.00,BKN,,0.00,WeatherDisplay:10.37,2013-04-03 05:35:00,
2013-04-03 01:40:00,28.8,19.6,30.12,WNW,284,7.0,8.1,68,0.00,BKN,,0.00,WeatherDisplay:10.37,2013-04-03 05:40:00,
2013-04-03 01:45:00,28.8,19.6,30.12,WNW,296,8.5,14.0,68,0.00,BKN,,0.00,WeatherDisplay:10.37,2013-04-03 05:45:00,
2013-04-03 01:51:00,28.8,19.6,30.13,West,280,7.3,9.2,68,0.00,BKN,,0.00,WeatherDisplay:10.37,2013-04-03 05:51:00,
2013-04-03 01:56:00,28.8,19.6,30.13,WNW,288,11.9,19.6,68,0.00,BKN,,0.00,WeatherDisplay:10.37,2013-04-03 05:56:00,
2013-04-03 02:01:00,28.8,19.6,30.12,WNW,296,5.0,10.4,68,0.00,BKN,,0.00,WeatherDisplay:10.37,2013-04-03 06:01:00,
2013-04-03 02:06:00,28.6,19.4,30.12,West,279,8.5,12.7,68,0.00,BKN,,0.00,WeatherDisplay:10.37,2013-04-03 06:06:00,
2013-04-03 02:11:00,28.5,19.3,30.13,West,268,7.7,11.5,68,0.00,BKN,,0.00,WeatherDisplay:10.37,2013-04-03 06:11:00,
2013-04-03 02:16:00,28.4,19.2,30.12,West,261,7.0,9.2,68,0.00,BKN,,0.00,WeatherDisplay:10.37,2013-04-03 06:16:00,
2013-04-03 02:21:00,28.2,19.0,30.12,West,273,4.3,5.8,68,0.00,BKN,,0.00,WeatherDisplay:10.37,2013-04-03 06:21:00,
2013-04-03 02:26:00,28.1,18.9,30.12,West,269,8.1,15.0,68,0.00,BKN,,0.00,WeatherDisplay:10.37,2013-04-03 06:26:00,
2013-04-03 02:31:00,28.1,19.2,30.12,West,274,5.0,5.0,69,0.00,BKN,,0.00,WeatherDisplay:10.37,2013-04-03 06:31:00,
2013-04-03 02:36:00,28.1,19.6,30.12,West,275,6.5,9.2,70,0.00,BKN,,0.00,WeatherDisplay:10.37,2013-04-03 06:36:00,
2013-04-03 02:41:00,27.9,19.1,30.12,West,268,5.0,5.0,69,0.00,BKN,,0.00,WeatherDisplay:10.37,2013-04-03 06:41:00,
2013-04-03 02:46:00,27.8,18.9,30.12,West,269,3.0,7.0,69,0.00,BKN,,0.00,WeatherDisplay:10.37,2013-04-03 06:46:00,
2013-04-03 02:52:00,27.7,18.5,30.12,West,269,6.7,9.2,68,0.00,BKN,,0.00,WeatherDisplay:10.37,2013-04-03 06:52:00,
2013-04-03 02:57:00,27.7,18.2,30.12,West,277,4.7,8.1,67,0.00,BKN,,0.00,WeatherDisplay:10.37,2013-04-03 06:57:00,
2013-04-03 03:02:00,27.6,18.1,30.12,WNW,286,3.9,6.9,67,0.00,CLR,,0.00,WeatherDisplay:10.37,2013-04-03 07:02:00,
2013-04-03 03:07:00,27.5,18.3,30.12,West,274,6.6,9.2,68,0.00,CLR,,0.00,WeatherDisplay:10.37,2013-04-03 07:07:00,
2013-04-03 03:12:00,27.4,18.2,30.12,WNW,286,5.6,8.1,68,0.00,CLR,,0.00,WeatherDisplay:10.37,2013-04-03 07:12:00,
2013-04-03 03:17:00,27.4,18.2,30.12,WNW,284,4.6,10.4,68,0.00,CLR,,0.00,WeatherDisplay:10.37,2013-04-03 07:17:00,
2013-04-03 03:22:00,27.3,18.1,30.12,WNW,289,2.9,8.1,68,0.00,CLR,,0.00,WeatherDisplay:10.37,2013-04-03 07:22:00,
2013-04-03 03:27:00,27.3,18.1,30.12,WNW,287,3.8,5.8,68,0.00,CLR,,0.00,WeatherDisplay:10.37,2013-04-03 07:27:00,
2013-04-03 03:32:00,27.3,18.5,30.12,West,268,3.2,6.0,69,0.00,CLR,,0.00,WeatherDisplay:10.37,2013-04-03 07:32:00,
2013-04-03 03:37:00,27.3,18.5,30.12,WSW,257,4.4,5.8,69,0.00,CLR,,0.00,WeatherDisplay:10.37,2013-04-03 07:37:00,
2013-04-03 03:42:00,27.3,18.5,30.12,West,281,3.7,4.6,69,0.00,CLR,,0.00,WeatherDisplay:10.37,2013-04-03 07:42:00,
2013-04-03 03:47:00,27.3,18.5,30.13,West,271,4.4,5.8,69,0.00,CLR,,0.00,WeatherDisplay:10.37,2013-04-03 07:47:00,
2013-04-03 03:52:00,27.3,18.5,30.12,West,276,4.5,10.4,69,0.00,CLR,,0.00,WeatherDisplay:10.37,2013-04-03 07:52:00,
2013-04-03 03:57:00,27.4,18.6,30.12,West,276,5.0,6.9,69,0.00,CLR,,0.00,WeatherDisplay:10.37,2013-04-03 07:57:00,
2013-04-03 04:02:00,27.6,18.4,30.12,WNW,302,4.2,10.4,68,0.00,OVC,,0.00,WeatherDisplay:10.37,2013-04-03 08:02:00,
2013-04-03 04:07:00,27.8,18.6,30.12,WNW,286,9.9,16.1,68,0.00,OVC,,0.00,WeatherDisplay:10.37,2013-04-03 08:07:00,
2013-04-03 04:12:00,27.9,18.4,30.13,WNW,291,7.2,9.2,67,0.00,OVC,,0.00,WeatherDisplay:10.37,2013-04-03 08:12:00,
2013-04-03 04:17:00,27.9,18.4,30.13,WNW,294,8.4,9.2,67,0.00,OVC,,0.00,WeatherDisplay:10.37,2013-04-03 08:17:00,
2013-04-03 04:22:00,27.9,18.4,30.13,WNW,287,7.0,12.0,67,0.00,OVC,,0.00,WeatherDisplay:10.37,2013-04-03 08:22:00,
2013-04-03 04:27:00,27.9,18.7,30.13,WNW,282,9.0,12.0,68,0.00,OVC,,0.00,WeatherDisplay:10.37,2013-04-03 08:27:00,
2013-04-03 04:32:00,27.9,18.7,30.13,West,281,7.7,8.1,68,0.00,OVC,,0.00,WeatherDisplay:10.37,2013-04-03 08:32:00,
2013-04-03 04:37:00,27.8,18.6,30.14,WNW,300,7.0,10.0,68,0.00,OVC,,0.00,WeatherDisplay:10.37,2013-04-03 08:37:00,
2013-04-03 04:42:00,27.8,18.6,30.14,WNW,299,3.0,7.0,68,0.00,OVC,,0.00,WeatherDisplay:10.37,2013-04-03 08:42:00,
2013-04-03 04:47:00,27.7,18.8,30.14,WNW,297,7.0,10.4,69,0.00,OVC,,0.00,WeatherDisplay:10.37,2013-04-03 08:47:00,
2013-04-03 04:52:00,27.7,18.9,30.14,West,279,6.0,9.0,69,0.00,OVC,,0.00,WeatherDisplay:10.37,2013-04-03 08:52:00,
2013-04-03 04:57:00,27.6,18.4,30.14,West,271,7.0,11.0,68,0.00,OVC,,0.00,WeatherDisplay:10.37,2013-04-03 08:57:00,
2013-04-03 05:02:00,27.5,18.0,30.14,West,273,9.1,11.5,67,0.00,SCT,,0.00,WeatherDisplay:10.37,2013-04-03 09:02:00,
2013-04-03 05:07:00,27.4,17.5,30.14,West,271,5.8,6.9,66,0.00,SCT,,0.00,WeatherDisplay:10.37,2013-04-03 09:07:00,
2013-04-03 05:12:00,27.4,17.5,30.14,West,278,5.0,8.0,66,0.00,SCT,,0.00,WeatherDisplay:10.37,2013-04-03 09:12:00,
2013-04-03 05:17:00,27.3,17.4,30.14,WNW,284,12.4,17.3,66,0.00,SCT,,0.00,WeatherDisplay:10.37,2013-04-03 09:17:00,
2013-04-03 05:22:00,27.4,17.8,30.15,West,271,8.0,14.0,67,0.00,SCT,,0.00,WeatherDisplay:10.37,2013-04-03 09:22:00,
2013-04-03 05:27:00,27.3,17.8,30.15,West,271,7.0,12.0,67,0.00,SCT,,0.00,WeatherDisplay:10.37,2013-04-03 09:27:00,
2013-04-03 05:32:00,27.2,17.7,30.15,West,281,5.0,12.0,67,0.00,SCT,,0.00,WeatherDisplay:10.37,2013-04-03 09:32:00,
2013-04-03 05:37:00,27.1,17.2,30.15,WNW,303,9.7,13.8,66,0.00,SCT,,0.00,WeatherDisplay:10.37,2013-04-03 09:37:00,
2013-04-03 05:42:00,27.0,17.5,30.15,WNW,284,8.0,17.0,67,0.00,SCT,,0.00,WeatherDisplay:10.37,2013-04-03 09:42:00,
2013-04-03 05:48:00,26.9,17.4,30.15,West,281,5.4,8.1,67,0.00,SCT,,0.00,WeatherDisplay:10.37,2013-04-03 09:48:00,
2013-04-03 05:53:00,26.8,17.6,30.16,WSW,256,9.0,12.7,68,0.00,SCT,,0.00,WeatherDisplay:10.37,2013-04-03 09:53:00,
2013-04-03 05:58:00,26.8,17.6,30.16,WNW,296,7.9,11.5,68,0.00,SCT,,0.00,WeatherDisplay:10.37,2013-04-03 09:58:00,
2013-04-03 06:03:00,26.7,17.6,30.16,WNW,290,5.2,9.2,68,0.00,BKN,,0.00,WeatherDisplay:10.37,2013-04-03 10:03:00,
2013-04-03 06:08:00,26.6,17.8,30.16,West,272,6.5,11.5,69,0.00,BKN,,0.00,WeatherDisplay:10.37,2013-04-03 10:08:00,
2013-04-03 06:13:00,26.5,17.4,30.16,WSW,251,10.2,15.0,68,0.00,BKN,,0.00,WeatherDisplay:10.37,2013-04-03 10:13:00,
2013-04-03 06:18:00,26.4,17.3,30.16,West,277,10.3,12.7,68,0.00,BKN,,0.00,WeatherDisplay:10.37,2013-04-03 10:18:00,
2013-04-03 06:23:00,26.3,17.2,30.17,West,265,5.3,11.0,68,0.00,BKN,,0.00,WeatherDisplay:10.37,2013-04-03 10:23:00,
2013-04-03 06:28:00,26.2,17.4,30.17,NW,304,7.1,11.5,69,0.00,BKN,,0.00,WeatherDisplay:10.37,2013-04-03 10:28:00,
2013-04-03 06:33:00,26.2,17.4,30.17,WNW,299,7.3,11.5,69,0.00,BKN,,0.00,WeatherDisplay:10.37,2013-04-03 10:33:00,
2013-04-03 06:38:00,26.2,17.4,30.17,WNW,286,6.8,11.5,69,0.00,BKN,,0.00,WeatherDisplay:10.37,2013-04-03 10:38:00,
2013-04-03 06:43:00,26.1,17.3,30.17,West,279,4.4,6.9,69,0.00,BKN,,0.00,WeatherDisplay:10.37,2013-04-03 10:43:00,
2013-04-03 06:48:00,26.1,17.6,30.17,West,261,8.4,10.4,70,0.00,BKN,,0.00,WeatherDisplay:10.37,2013-04-03 10:48:00,
2013-04-03 06:53:00,26.1,17.3,30.18,WNW,300,7.5,11.5,69,0.00,BKN,,0.00,WeatherDisplay:10.37,2013-04-03 10:53:00,
2013-04-03 06:58:00,26.1,17.3,30.18,West,277,5.5,8.1,69,0.00,BKN,,0.00,WeatherDisplay:10.37,2013-04-03 10:58:00,
2013-04-03 07:03:00,26.0,17.2,30.18,West,281,7.1,10.4,69,0.00,BKN,,0.00,WeatherDisplay:10.37,2013-04-03 11:03:00,
2013-04-03 07:08:00,25.9,17.1,30.19,WNW,291,7.4,10.0,69,0.00,BKN,,0.00,WeatherDisplay:10.37,2013-04-03 11:08:00,
2013-04-03 07:13:00,25.9,17.5,30.19,West,278,3.0,5.8,70,0.00,BKN,,0.00,WeatherDisplay:10.37,2013-04-03 11:13:00,
2013-04-03 07:18:00,25.8,17.4,30.19,West,273,2.0,4.6,70,0.00,BKN,,0.00,WeatherDisplay:10.37,2013-04-03 11:18:00,
2013-04-03 07:23:00,25.8,17.4,30.19,WNW,282,5.6,6.9,70,0.00,BKN,,0.00,WeatherDisplay:10.37,2013-04-03 11:23:00,
2013-04-03 07:28:00,25.9,17.5,30.19,WNW,291,8.2,11.5,70,0.00,BKN,,0.00,WeatherDisplay:10.37,2013-04-03 11:28:00,
2013-04-03 07:33:00,26.0,17.6,30.19,WNW,285,7.5,11.5,70,0.00,BKN,,0.00,WeatherDisplay:10.37,2013-04-03 11:33:00,
2013-04-03 07:38:00,26.2,17.7,30.20,WNW,288,8.5,11.5,70,0.00,BKN,,0.00,WeatherDisplay:10.37,2013-04-03 11:38:00,
2013-04-03 07:43:00,26.3,17.8,30.20,WNW,282,6.7,10.4,70,0.00,BKN,,0.00,WeatherDisplay:10.37,2013-04-03 11:43:00,
2013-04-03 07:48:00,26.6,18.5,30.20,WSW,248,7.9,11.5,71,0.00,BKN,,0.00,WeatherDisplay:10.37,2013-04-03 11:48:00,
2013-04-03 07:53:00,26.8,18.7,30.20,WNW,298,5.3,9.2,71,0.00,BKN,,0.00,WeatherDisplay:10.37,2013-04-03 11:53:00,
2013-04-03 07:58:00,26.8,18.3,30.20,West,269,9.8,12.0,70,0.00,BKN,,0.00,WeatherDisplay:10.37,2013-04-03 11:58:00,
2013-04-03 08:03:00,27.1,18.6,30.20,WNW,288,8.1,11.5,70,0.00,BKN,,0.00,WeatherDisplay:10.37,2013-04-03 12:03:00,
2013-04-03 08:08:00,27.2,18.4,30.21,WNW,296,6.3,10.4,69,0.00,BKN,,0.00,WeatherDisplay:10.37,2013-04-03 12:08:00,
2013-04-03 08:13:00,27.4,18.9,30.21,West,268,6.9,8.1,70,0.00,BKN,,0.00,WeatherDisplay:10.37,2013-04-03 12:13:00,
2013-04-03 08:18:00,27.4,18.9,30.21,WNW,289,6.9,6.9,70,0.00,BKN,,0.00,WeatherDisplay:10.37,2013-04-03 12:18:00,
2013-04-03 08:23:00,27.4,18.6,30.21,WNW,292,7.0,9.0,69,0.00,BKN,,0.00,WeatherDisplay:10.37,2013-04-03 12:23:00,
2013-04-03 08:28:00,27.3,18.5,30.21,West,275,8.4,9.2,69,0.00,BKN,,0.00,WeatherDisplay:10.37,2013-04-03 12:28:00,
2013-04-03 08:33:00,27.2,18.4,30.21,West,281,8.0,12.0,69,0.00,BKN,,0.00,WeatherDisplay:10.37,2013-04-03 12:33:00,
2013-04-03 08:38:00,27.4,18.2,30.21,WNW,303,9.7,12.7,68,0.00,BKN,,0.00,WeatherDisplay:10.37,2013-04-03 12:38:00,
2013-04-03 08:43:00,27.4,17.9,30.21,WSW,245,10.4,12.7,67,0.00,BKN,,0.00,WeatherDisplay:10.37,2013-04-03 12:43:00,
2013-04-03 08:48:00,27.6,18.1,30.21,NW,309,9.3,16.1,67,0.00,BKN,,0.00,WeatherDisplay:10.37,2013-04-03 12:48:00,
2013-04-03 08:53:00,28.1,18.5,30.21,West,275,10.6,18.4,67,0.00,BKN,,0.00,WeatherDisplay:10.37,2013-04-03 12:53:00,
2013-04-03 08:58:00,28.1,18.2,30.21,WNW,293,10.2,13.8,66,0.00,BKN,,0.00,WeatherDisplay:10.37,2013-04-03 12:58:00,
2013-04-03 09:03:00,28.3,19.1,30.21,WSW,257,9.3,11.5,68,0.00,BKN,,0.00,WeatherDisplay:10.37,2013-04-03 13:03:00,
2013-04-03 09:08:00,28.3,18.7,30.21,West,276,10.6,12.7,67,0.00,BKN,,0.00,WeatherDisplay:10.37,2013-04-03 13:08:00,
2013-04-03 09:14:00,27.9,18.4,30.21,WSW,238,11.1,16.1,67,0.00,BKN,,0.00,WeatherDisplay:10.37,2013-04-03 13:14:00,
2013-04-03 09:19:00,27.6,18.1,30.21,West,269,6.1,16.1,67,0.00,BKN,,0.00,WeatherDisplay:10.37,2013-04-03 13:19:00,
2013-04-03 09:24:00,27.8,18.6,30.21,SW,229,6.9,11.5,68,0.00,BKN,,0.00,WeatherDisplay:10.37,2013-04-03 13:24:00,
2013-04-03 09:29:00,28.4,18.8,30.21,WNW,291,10.7,16.1,67,0.00,BKN,,0.00,WeatherDisplay:10.37,2013-04-03 13:29:00,
2013-04-03 09:34:00,28.5,18.9,30.21,WNW,282,9.5,11.5,67,0.00,BKN,,0.00,WeatherDisplay:10.37,2013-04-03 13:34:00,
2013-04-03 09:39:00,28.2,17.9,30.21,WSW,254,11.6,15.0,65,0.00,BKN,,0.00,WeatherDisplay:10.37,2013-04-03 13:39:00,
2013-04-03 09:44:00,28.7,19.1,30.21,WNW,292,8.8,17.3,67,0.00,BKN,,0.00,WeatherDisplay:10.37,2013-04-03 13:44:00,
2013-04-03 09:49:00,29.3,19.7,30.21,West,268,7.1,11.5,67,0.00,BKN,,0.00,WeatherDisplay:10.37,2013-04-03 13:49:00,
2013-04-03 09:54:00,29.3,18.6,30.21,WNW,286,11.4,16.1,64,0.00,BKN,,0.00,WeatherDisplay:10.37,2013-04-03 13:54:00,
2013-04-03 09:59:00,29.0,18.3,30.21,WNW,282,9.2,15.0,64,0.00,BKN,,0.00,WeatherDisplay:10.37,2013-04-03 13:59:00,
2013-04-03 10:04:00,29.1,18.1,30.21,West,277,9.9,13.8,63,0.00,BKN,,0.00,WeatherDisplay:10.37,2013-04-03 14:04:00,
2013-04-03 10:09:00,29.4,18.7,30.22,WNW,296,9.2,13.8,64,0.00,BKN,,0.00,WeatherDisplay:10.37,2013-04-03 14:09:00,
2013-04-03 10:14:00,29.6,18.2,30.21,West,274,7.7,12.7,62,0.00,BKN,,0.00,WeatherDisplay:10.37,2013-04-03 14:14:00,
2013-04-03 10:19:00,29.3,18.3,30.22,WNW,287,9.0,17.3,63,0.00,BKN,,0.00,WeatherDisplay:10.37,2013-04-03 14:19:00,
2013-04-03 10:24:00,28.9,18.2,30.22,WNW,288,11.0,17.3,64,0.00,BKN,,0.00,WeatherDisplay:10.37,2013-04-03 14:24:00,
2013-04-03 10:29:00,28.7,18.1,30.22,WNW,298,7.4,11.5,64,0.00,BKN,,0.00,WeatherDisplay:10.37,2013-04-03 14:29:00,
2013-04-03 10:34:00,28.9,17.9,30.22,West,273,9.5,13.8,63,0.00,BKN,,0.00,WeatherDisplay:10.37,2013-04-03 14:34:00,
2013-04-03 10:39:00,29.0,17.2,30.22,West,265,10.5,12.7,61,0.00,BKN,,0.00,WeatherDisplay:10.37,2013-04-03 14:39:00,
2013-04-03 10:44:00,29.1,18.1,30.22,WSW,258,6.9,11.5,63,0.00,BKN,,0.00,WeatherDisplay:10.37,2013-04-03 14:44:00,
2013-04-03 10:49:00,29.0,18.3,30.22,West,269,10.2,17.3,64,0.00,BKN,,0.00,WeatherDisplay:10.37,2013-04-03 14:49:00,
2013-04-03 10:54:00,28.9,17.9,30.23,NW,308,10.3,13.8,63,0.00,BKN,,0.00,WeatherDisplay:10.37,2013-04-03 14:54:00,
2013-04-03 10:59:00,29.3,17.9,30.23,NNW,338,7.7,11.5,62,0.00,BKN,,0.00,WeatherDisplay:10.37,2013-04-03 14:59:00,
2013-04-03 11:04:00,29.3,18.3,30.23,WNW,286,8.9,11.5,63,0.00,BKN,,0.00,WeatherDisplay:10.37,2013-04-03 15:04:00,
2013-04-03 11:09:00,29.2,18.2,30.23,WNW,288,11.0,16.1,63,0.00,BKN,,0.00,WeatherDisplay:10.37,2013-04-03 15:09:00,
2013-04-03 11:14:00,29.7,18.6,30.24,West,265,7.9,11.5,63,0.00,BKN,,0.00,WeatherDisplay:10.37,2013-04-03 15:14:00,
2013-04-03 11:19:00,30.1,18.3,30.24,NW,314,8.9,11.5,61,0.00,BKN,,0.00,WeatherDisplay:10.37,2013-04-03 15:19:00,
2013-04-03 11:24:00,29.9,17.3,30.24,WNW,293,13.1,18.4,59,0.00,BKN,,0.00,WeatherDisplay:10.37,2013-04-03 15:24:00,
2013-04-03 11:29:00,29.6,17.8,30.25,West,272,10.3,15.0,61,0.00,BKN,,0.00,WeatherDisplay:10.37,2013-04-03 15:29:00,
2013-04-03 11:34:00,29.5,18.1,30.25,WNW,293,12.3,20.7,62,0.00,BKN,,0.00,WeatherDisplay:10.37,2013-04-03 15:34:00,
2013-04-03 11:39:00,29.9,18.1,30.25,West,271,10.8,15.0,61,0.00,BKN,,0.00,WeatherDisplay:10.37,2013-04-03 15:39:00,
2013-04-03 11:44:00,30.3,18.5,30.25,West,265,12.5,17.3,61,0.00,BKN,,0.00,WeatherDisplay:10.37,2013-04-03 15:44:00,
2013-04-03 11:49:00,30.6,18.7,30.25,West,269,7.7,12.0,61,0.00,BKN,,0.00,WeatherDisplay:10.37,2013-04-03 15:49:00,
2013-04-03 11:54:00,30.7,18.1,30.25,WNW,298,12.5,17.3,59,0.00,BKN,,0.00,WeatherDisplay:10.37,2013-04-03 15:54:00,
2013-04-03 11:59:00,31.1,18.0,30.25,NW,314,11.3,21.9,58,0.00,BKN,,0.00,WeatherDisplay:10.37,2013-04-03 15:59:00,
2013-04-03 12:04:00,31.4,18.7,30.25,WNW,300,11.7,19.6,59,0.00,-SN,,0.00,WeatherDisplay:10.37,2013-04-03 16:04:00,
2013-04-03 12:09:00,31.3,18.6,30.25,WSW,251,9.7,15.0,59,0.00,-SN,,0.00,WeatherDisplay:10.37,2013-04-03 16:09:00,
2013-04-03 12:14:00,31.7,19.7,30.25,West,263,13.0,20.0,61,0.00,-SN,,0.00,WeatherDisplay:10.37,2013-04-03 16:14:00,
2013-04-03 12:19:00,32.5,19.7,30.25,West,270,12.0,15.0,59,0.00,-SN,,0.00,WeatherDisplay:10.37,2013-04-03 16:19:00,
2013-04-03 12:24:00,32.4,19.3,30.26,West,260,9.0,13.0,58,0.00,-SN,,0.00,WeatherDisplay:10.37,2013-04-03 16:24:00,
2013-04-03 12:29:00,32.3,18.7,30.26,West,267,10.0,15.0,57,0.00,-SN,,0.00,WeatherDisplay:10.37,2013-04-03 16:29:00,
2013-04-03 12:34:00,32.0,18.5,30.26,West,263,10.0,14.0,57,0.00,-SN,,0.00,WeatherDisplay:10.37,2013-04-03 16:34:00,
2013-04-03 12:40:00,32.0,18.1,30.26,WNW,284,12.0,19.6,56,0.00,-SN,,0.00,WeatherDisplay:10.37,2013-04-03 16:40:00,
2013-04-03 12:45:00,32.0,16.8,30.26,West,281,12.3,18.4,53,0.00,BKN,,0.00,WeatherDisplay:10.37,2013-04-03 16:45:00,
2013-04-03 12:50:00,31.7,17.8,30.26,West,271,9.3,12.7,56,0.00,BKN,,0.00,WeatherDisplay:10.37,2013-04-03 16:50:00,
2013-04-03 12:55:00,32.1,18.6,30.26,WNW,288,11.5,16.1,57,0.00,BKN,,0.00,WeatherDisplay:10.37,2013-04-03 16:55:00,
2013-04-03 13:00:00,33.0,18.6,30.26,WNW,296,8.7,12.7,55,0.00,BKN,,0.00,WeatherDisplay:10.37,2013-04-03 17:00:00,
2013-04-03 13:05:00,32.6,17.3,30.26,West,271,15.8,23.0,53,0.00,BKN,,0.00,WeatherDisplay:10.37,2013-04-03 17:05:00,
2013-04-03 13:10:00,32.3,18.3,30.26,West,265,8.2,19.6,56,0.00,BKN,,0.00,WeatherDisplay:10.37,2013-04-03 17:10:00,
2013-04-03 13:15:00,33.1,18.7,30.26,West,272,9.2,15.0,55,0.00,BKN,,0.00,WeatherDisplay:10.37,2013-04-03 17:15:00,
2013-04-03 13:20:00,33.1,18.2,30.26,West,281,8.4,12.7,54,0.00,BKN,,0.00,WeatherDisplay:10.37,2013-04-03 17:20:00,
2013-04-03 13:25:00,33.1,17.8,30.26,WNW,290,11.0,19.6,53,0.00,BKN,,0.00,WeatherDisplay:10.37,2013-04-03 17:25:00,
2013-04-03 13:30:00,33.6,18.7,30.26,West,259,10.7,12.7,54,0.00,BKN,,0.00,WeatherDisplay:10.37,2013-04-03 17:30:00,
2013-04-03 13:35:00,33.4,17.6,30.27,WNW,287,8.1,12.0,52,0.00,BKN,,0.00,WeatherDisplay:10.37,2013-04-03 17:35:00,
2013-04-03 13:40:00,33.1,17.8,30.27,WNW,296,11.7,19.6,53,0.00,BKN,,0.00,WeatherDisplay:10.37,2013-04-03 17:40:00,
2013-04-03 13:45:00,32.8,17.1,30.27,WNW,295,9.1,17.3,52,0.00,BKN,,0.00,WeatherDisplay:10.37,2013-04-03 17:45:00,
2013-04-03 13:50:00,33.3,17.5,30.26,WNW,297,11.6,17.3,52,0.00,BKN,,0.00,WeatherDisplay:10.37,2013-04-03 17:50:00,
2013-04-03 13:55:00,32.6,17.8,30.27,West,280,9.7,20.7,54,0.00,BKN,,0.00,WeatherDisplay:10.37,2013-04-03 17:55:00,
2013-04-03 14:00:00,33.0,17.7,30.27,WNW,283,13.0,15.0,53,0.00,BKN,,0.00,WeatherDisplay:10.37,2013-04-03 18:00:00,
2013-04-03 14:05:00,32.3,16.2,30.27,NNW,327,12.3,19.6,51,0.00,BKN,,0.00,WeatherDisplay:10.37,2013-04-03 18:05:00,
2013-04-03 14:10:00,32.3,16.6,30.27,NW,310,9.6,12.7,52,0.00,BKN,,0.00,WeatherDisplay:10.37,2013-04-03 18:10:00,
2013-04-03 14:15:00,33.1,17.8,30.27,WNW,292,10.4,13.8,53,0.00,BKN,,0.00,WeatherDisplay:10.37,2013-04-03 18:15:00,
2013-04-03 14:20:00,33.3,16.6,30.27,WNW,296,11.0,16.1,50,0.00,BKN,,0.00,WeatherDisplay:10.37,2013-04-03 18:20:00,
2013-04-03 14:25:00,33.8,16.2,30.27,WNW,283,13.8,23.0,48,0.00,BKN,,0.00,WeatherDisplay:10.37,2013-04-03 18:25:00,
2013-04-03 14:30:00,33.7,16.5,30.27,West,274,12.0,17.3,49,0.00,BKN,,0.00,WeatherDisplay:10.37,2013-04-03 18:30:00,
2013-04-03 14:35:00,34.1,17.4,30.27,WNW,286,9.3,15.0,50,0.00,BKN,,0.00,WeatherDisplay:10.37,2013-04-03 18:35:00,
2013-04-03 14:40:00,34.1,15.5,30.27,West,265,11.5,19.6,46,0.00,BKN,,0.00,WeatherDisplay:10.37,2013-04-03 18:40:00,
2013-04-03 14:46:00,34.7,17.0,30.27,West,259,9.5,12.7,48,0.00,BKN,,0.00,WeatherDisplay:10.37,2013-04-03 18:46:00,
2013-04-03 14:51:00,34.8,16.6,30.28,WSW,242,9.4,15.0,47,0.00,BKN,,0.00,WeatherDisplay:10.37,2013-04-03 18:51:00,
2013-04-03 14:56:00,34.4,15.7,30.28,West,267,9.6,19.6,46,0.00,BKN,,0.00,WeatherDisplay:10.37,2013-04-03 18:56:00,
2013-04-03 15:01:00,34.4,16.7,30.28,West,268,8.8,19.6,48,0.00,BKN,,0.00,WeatherDisplay:10.37,2013-04-03 19:01:00,
2013-04-03 15:06:00,34.4,15.7,30.28,West,280,11.7,18.4,46,0.00,BKN,,0.00,WeatherDisplay:10.37,2013-04-03 19:06:00,
2013-04-03 15:11:00,34.1,16.4,30.28,WNW,290,7.8,15.0,48,0.00,BKN,,0.00,WeatherDisplay:10.37,2013-04-03 19:11:00,
2013-04-03 15:16:00,33.7,16.5,30.28,WNW,285,8.6,15.0,49,0.00,BKN,,0.00,WeatherDisplay:10.37,2013-04-03 19:16:00,
2013-04-03 15:21:00,33.8,17.1,30.28,NW,306,10.5,13.8,50,0.00,BKN,,0.00,WeatherDisplay:10.37,2013-04-03 19:21:00,
2013-04-03 15:26:00,34.4,18.1,30.28,WNW,287,12.0,12.7,51,0.00,BKN,,0.00,WeatherDisplay:10.37,2013-04-03 19:26:00,
2013-04-03 15:31:00,34.5,16.3,30.28,NW,305,13.0,17.0,47,0.00,BKN,,0.00,WeatherDisplay:10.37,2013-04-03 19:31:00,
2013-04-03 15:36:00,34.4,15.2,30.28,West,278,11.3,15.0,45,0.00,BKN,,0.00,WeatherDisplay:10.37,2013-04-03 19:36:00,
2013-04-03 15:42:00,34.8,16.1,30.28,West,273,12.0,16.0,46,0.00,BKN,,0.00,WeatherDisplay:10.37,2013-04-03 19:42:00,
2013-04-03 15:47:00,34.9,15.7,30.28,West,263,10.5,13.8,45,0.00,BKN,,0.00,WeatherDisplay:10.37,2013-04-03 19:47:00,
2013-04-03 15:52:00,35.1,15.9,30.28,WNW,282,12.6,19.6,45,0.00,BKN,,0.00,WeatherDisplay:10.37,2013-04-03 19:52:00,
2013-04-03 15:57:00,34.8,15.6,30.28,West,278,10.8,17.3,45,0.00,BKN,,0.00,WeatherDisplay:10.37,2013-04-03 19:57:00,
2013-04-03 16:02:00,35.3,17.1,30.29,West,271,12.6,17.3,47,0.00,SCT,,0.00,WeatherDisplay:10.37,2013-04-03 20:02:00,
2013-04-03 16:07:00,35.0,15.8,30.29,WSW,242,11.0,15.0,45,0.00,SCT,,0.00,WeatherDisplay:10.37,2013-04-03 20:07:00,
2013-04-03 16:12:00,34.9,16.7,30.29,NW,307,11.2,13.8,47,0.00,SCT,,0.00,WeatherDisplay:10.37,2013-04-03 20:12:00,
2013-04-03 16:17:00,34.9,16.7,30.29,WNW,285,10.4,15.0,47,0.00,SCT,,0.00,WeatherDisplay:10.37,2013-04-03 20:17:00,
2013-04-03 16:22:00,35.0,16.3,30.29,West,275,8.8,10.4,46,0.00,SCT,,0.00,WeatherDisplay:10.37,2013-04-03 20:22:00,
2013-04-03 16:27:00,35.3,17.5,30.29,West,264,9.3,17.3,48,0.00,SCT,,0.00,WeatherDisplay:10.37,2013-04-03 20:27:00,
2013-04-03 16:32:00,35.2,17.9,30.29,WSW,250,11.4,15.0,49,0.00,SCT,,0.00,WeatherDisplay:10.37,2013-04-03 20:32:00,
2013-04-03 16:37:00,35.3,17.1,30.29,WNW,300,10.2,13.8,47,0.00,SCT,,0.00,WeatherDisplay:10.37,2013-04-03 20:37:00,
2013-04-03 16:42:00,35.3,16.6,30.29,NW,315,8.0,12.7,46,0.00,SCT,,0.00,WeatherDisplay:10.37,2013-04-03 20:42:00,
2013-04-03 16:47:00,35.0,15.8,30.29,NW,313,13.2,19.6,45,0.00,SCT,,0.00,WeatherDisplay:10.37,2013-04-03 20:47:00,
2013-04-03 16:52:00,34.9,16.7,30.29,West,279,11.4,15.0,47,0.00,SCT,,0.00,WeatherDisplay:10.37,2013-04-03 20:52:00,
2013-04-03 16:57:00,34.9,17.2,30.29,WNW,290,11.0,18.4,48,0.00,SCT,,0.00,WeatherDisplay:10.37,2013-04-03 20:57:00,
2013-04-03 17:02:00,35.0,17.7,30.29,West,280,8.9,13.8,49,0.00,FEW,,0.00,WeatherDisplay:10.37,2013-04-03 21:02:00,
2013-04-03 17:07:00,34.6,16.4,30.28,WSW,252,12.0,15.0,47,0.00,FEW,,0.00,WeatherDisplay:10.37,2013-04-03 21:07:00,
2013-04-03 17:12:00,34.8,17.1,30.29,WSW,240,10.1,19.0,48,0.00,FEW,,0.00,WeatherDisplay:10.37,2013-04-03 21:12:00,
2013-04-03 17:17:00,35.3,17.5,30.29,West,281,7.5,9.2,48,0.00,FEW,,0.00,WeatherDisplay:10.37,2013-04-03 21:17:00,
2013-04-03 17:22:00,35.4,17.1,30.29,West,271,6.8,16.0,47,0.00,FEW,,0.00,WeatherDisplay:10.37,2013-04-03 21:22:00,
2013-04-03 17:27:00,35.1,16.9,30.30,West,277,11.5,15.0,47,0.00,FEW,,0.00,WeatherDisplay:10.37,2013-04-03 21:27:00,
2013-04-03 17:32:00,34.8,16.6,30.30,WNW,287,9.7,11.5,47,0.00,FEW,,0.00,WeatherDisplay:10.37,2013-04-03 21:32:00,
2013-04-03 17:37:00,35.0,16.8,30.30,WNW,290,10.9,15.0,47,0.00,FEW,,0.00,WeatherDisplay:10.37,2013-04-03 21:37:00,
2013-04-03 17:42:00,34.9,16.7,30.30,West,273,13.3,17.3,47,0.00,FEW,,0.00,WeatherDisplay:10.37,2013-04-03 21:42:00,
2013-04-03 17:47:00,34.6,16.4,30.30,WNW,292,10.2,15.0,47,0.00,FEW,,0.00,WeatherDisplay:10.37,2013-04-03 21:47:00,
2013-04-03 17:52:00,34.4,15.7,30.30,WNW,285,8.9,13.8,46,0.00,FEW,,0.00,WeatherDisplay:10.37,2013-04-03 21:52:00,
2013-04-03 17:57:00,34.4,16.2,30.30,West,276,10.2,16.1,47,0.00,FEW,,0.00,WeatherDisplay:10.37,2013-04-03 21:57:00,
2013-04-03 18:02:00,34.4,16.2,30.31,WSW,254,9.8,18.4,47,0.00,FEW,,0.00,WeatherDisplay:10.37,2013-04-03 22:02:00,
2013-04-03 18:07:00,34.4,16.2,30.30,WNW,289,11.4,16.1,47,0.00,FEW,,0.00,WeatherDisplay:10.37,2013-04-03 22:07:00,
2013-04-03 18:12:00,34.1,15.9,30.30,West,277,6.8,19.6,47,0.00,FEW,,0.00,WeatherDisplay:10.37,2013-04-03 22:12:00,
2013-04-03 18:17:00,34.3,16.1,30.31,WNW,292,8.0,12.0,47,0.00,FEW,,0.00,WeatherDisplay:10.37,2013-04-03 22:17:00,
2013-04-03 18:22:00,34.4,15.7,30.31,WNW,294,10.0,15.0,46,0.00,FEW,,0.00,WeatherDisplay:10.37,2013-04-03 22:22:00,
2013-04-03 18:27:00,34.1,15.9,30.31,West,269,10.0,13.8,47,0.00,FEW,,0.00,WeatherDisplay:10.37,2013-04-03 22:27:00,
2013-04-03 18:32:00,33.9,15.8,30.31,West,273,9.4,11.5,47,0.00,FEW,,0.00,WeatherDisplay:10.37,2013-04-03 22:32:00,
2013-04-03 18:37:00,33.9,16.3,30.32,West,275,9.0,15.0,48,0.00,FEW,,0.00,WeatherDisplay:10.37,2013-04-03 22:37:00,
2013-04-03 18:43:00,33.9,16.7,30.32,WNW,290,8.1,14.0,49,0.00,FEW,,0.00,WeatherDisplay:10.37,2013-04-03 22:43:00,
2013-04-03 18:48:00,33.8,18.5,30.32,West,265,8.6,11.5,53,0.00,FEW,,0.00,WeatherDisplay:10.37,2013-04-03 22:48:00,
2013-04-03 18:53:00,33.8,18.0,30.32,West,281,6.1,10.4,52,0.00,FEW,,0.00,WeatherDisplay:10.37,2013-04-03 22:53:00,
2013-04-03 18:58:00,33.8,18.0,30.32,WNW,284,3.8,9.2,52,0.00,FEW,,0.00,WeatherDisplay:10.37,2013-04-03 22:58:00,
2013-04-03 19:03:00,33.6,17.8,30.33,WNW,284,6.6,9.2,52,0.00,FEW,,0.00,WeatherDisplay:10.37,2013-04-03 23:03:00,
2013-04-03 19:08:00,33.3,17.5,30.33,West,259,10.4,12.7,52,0.00,FEW,,0.00,WeatherDisplay:10.37,2013-04-03 23:08:00,
2013-04-03 19:13:00,33.1,16.9,30.33,West,279,8.5,12.7,51,0.00,FEW,,0.00,WeatherDisplay:10.37,2013-04-03 23:13:00,
2013-04-03 19:18:00,32.9,16.7,30.33,WSW,257,8.7,15.0,51,0.00,FEW,,0.00,WeatherDisplay:10.37,2013-04-03 23:18:00,
2013-04-03 19:23:00,32.7,17.0,30.34,West,281,3.5,8.1,52,0.00,FEW,,0.00,WeatherDisplay:10.37,2013-04-03 23:23:00,
2013-04-03 19:28:00,32.4,16.7,30.34,WNW,289,6.5,8.1,52,0.00,FEW,,0.00,WeatherDisplay:10.37,2013-04-03 23:28:00,
2013-04-03 19:33:00,32.2,16.5,30.34,WNW,282,6.1,9.2,52,0.00,FEW,,0.00,WeatherDisplay:10.37,2013-04-03 23:33:00,
2013-04-03 19:38:00,32.0,16.3,30.34,WNW,295,4.7,10.4,52,0.00,FEW,,0.00,WeatherDisplay:10.37,2013-04-03 23:38:00,
2013-04-03 19:43:00,31.7,16.1,30.35,West,261,7.1,10.4,52,0.00,FEW,,0.00,WeatherDisplay:10.37,2013-04-03 23:43:00,
2013-04-03 19:48:00,31.6,16.0,30.35,West,280,4.7,9.2,52,0.00,FEW,,0.00,WeatherDisplay:10.37,2013-04-03 23:48:00,
2013-04-03 19:53:00,31.5,16.3,30.35,WNW,283,4.1,10.4,53,0.00,FEW,,0.00,WeatherDisplay:10.37,2013-04-03 23:53:00,
2013-04-03 19:58:00,31.4,16.2,30.35,West,277,5.0,8.0,53,0.00,FEW,,0.00,WeatherDisplay:10.37,2013-04-03 23:58:00,
2013-04-03 20:04:00,31.2,16.5,30.36,West,260,5.8,6.9,54,0.00,FEW,,0.00,WeatherDisplay:10.37,2013-04-04 00:04:00,
2013-04-03 20:09:00,31.1,16.8,30.36,West,268,4.5,9.2,55,0.00,FEW,,0.00,WeatherDisplay:10.37,2013-04-04 00:09:00,
2013-04-03 20:14:00,30.9,16.6,30.36,West,264,4.8,6.0,55,0.00,FEW,,0.00,WeatherDisplay:10.37,2013-04-04 00:14:00,
2013-04-03 20:19:00,30.8,17.3,30.36,West,267,4.1,6.9,57,0.00,FEW,,0.00,WeatherDisplay:10.37,2013-04-04 00:19:00,
2013-04-03 20:24:00,30.6,17.2,30.36,West,273,3.0,3.5,57,0.00,FEW,,0.00,WeatherDisplay:10.37,2013-04-04 00:24:00,
2013-04-03 20:30:00,30.6,17.2,30.36,West,269,5.0,6.0,57,0.00,FEW,,0.00,WeatherDisplay:10.37,2013-04-04 00:30:00,
2013-04-03 20:35:00,30.6,17.6,30.37,West,269,3.0,3.5,58,0.00,FEW,,0.00,WeatherDisplay:10.37,2013-04-04 00:35:00,
2013-04-03 20:40:00,30.6,17.9,30.37,West,259,1.0,3.0,59,0.00,FEW,,0.00,WeatherDisplay:10.37,2013-04-04 00:40:00,
2013-04-03 20:45:00,30.7,18.1,30.37,West,270,5.5,10.4,59,0.00,FEW,,0.00,WeatherDisplay:10.37,2013-04-04 00:45:00,
2013-04-03 20:50:00,30.7,18.1,30.38,WSW,248,7.4,9.2,59,0.00,FEW,,0.00,WeatherDisplay:10.37,2013-04-04 00:50:00,
2013-04-03 20:55:00,30.9,18.2,30.37,WSW,250,4.7,11.5,59,0.00,FEW,,0.00,WeatherDisplay:10.37,2013-04-04 00:55:00,
2013-04-03 21:00:00,31.0,17.9,30.38,WSW,237,9.0,13.8,58,0.00,FEW,,0.00,WeatherDisplay:10.37,2013-04-04 01:00:00,
2013-04-03 21:05:00,31.0,17.9,30.38,WSW,238,7.1,9.2,58,0.00,FEW,,0.00,WeatherDisplay:10.37,2013-04-04 01:05:00,
2013-04-03 21:10:00,31.0,17.9,30.39,WSW,240,6.3,11.0,58,0.00,FEW,,0.00,WeatherDisplay:10.37,2013-04-04 01:10:00,
2013-04-03 21:15:00,30.8,18.1,30.39,SW,223,6.4,11.5,59,0.00,FEW,,0.00,WeatherDisplay:10.37,2013-04-04 01:15:00,
2013-04-03 21:20:00,30.7,17.7,30.39,WSW,244,6.9,9.2,58,0.00,FEW,,0.00,WeatherDisplay:10.37,2013-04-04 01:20:00,
2013-04-03 21:25:00,30.6,18.0,30.39,SW,231,7.0,8.1,59,0.00,FEW,,0.00,WeatherDisplay:10.37,2013-04-04 01:25:00,
2013-04-03 21:30:00,30.5,18.3,30.39,WSW,254,9.9,16.1,60,0.00,FEW,,0.00,WeatherDisplay:10.37,2013-04-04 01:30:00,
2013-04-03 21:35:00,30.4,18.5,30.39,WSW,249,9.5,12.7,61,0.00,FEW,,0.00,WeatherDisplay:10.37,2013-04-04 01:35:00,
2013-04-03 21:40:00,30.3,18.5,30.39,WSW,239,6.1,12.7,61,0.00,FEW,,0.00,WeatherDisplay:10.37,2013-04-04 01:40:00,
2013-04-03 21:45:00,30.2,18.7,30.38,West,263,5.8,9.2,62,0.00,FEW,,0.00,WeatherDisplay:10.37,2013-04-04 01:45:00,
2013-04-03 21:50:00,30.0,18.5,30.38,West,270,5.0,11.5,62,0.00,FEW,,0.00,WeatherDisplay:10.37,2013-04-04 01:50:00,
2013-04-03 21:55:00,29.9,18.5,30.38,West,265,5.3,8.1,62,0.00,FEW,,0.00,WeatherDisplay:10.37,2013-04-04 01:55:00,
2013-04-03 22:00:00,29.8,18.7,30.38,WSW,240,3.3,7.0,63,0.00,FEW,,0.00,WeatherDisplay:10.37,2013-04-04 02:00:00,
2013-04-03 22:05:00,29.8,18.7,30.38,West,268,5.4,8.1,63,0.00,CLR,,0.00,WeatherDisplay:10.37,2013-04-04 02:05:00,
2013-04-03 22:10:00,29.8,18.7,30.38,WSW,238,3.1,5.8,63,0.00,CLR,,0.00,WeatherDisplay:10.37,2013-04-04 02:10:00,
2013-04-03 22:15:00,29.6,18.5,30.37,WSW,245,2.9,4.6,63,0.00,CLR,,0.00,WeatherDisplay:10.37,2013-04-04 02:15:00,
2013-04-03 22:20:00,29.5,18.8,30.38,WSW,244,3.8,6.0,64,0.00,CLR,,0.00,WeatherDisplay:10.37,2013-04-04 02:20:00,
2013-04-03 22:25:00,29.4,18.3,30.38,WSW,242,5.4,6.9,63,0.00,CLR,,0.00,WeatherDisplay:10.37,2013-04-04 02:25:00,
2013-04-03 22:30:00,29.4,18.7,30.38,WSW,252,2.9,5.8,64,0.00,CLR,,0.00,WeatherDisplay:10.37,2013-04-04 02:30:00,
2013-04-03 22:35:00,29.3,19.0,30.37,WSW,240,2.8,5.8,65,0.00,CLR,,0.00,WeatherDisplay:10.37,2013-04-04 02:35:00,
2013-04-03 22:40:00,29.2,18.9,30.37,WSW,240,1.4,3.5,65,0.00,CLR,,0.00,WeatherDisplay:10.37,2013-04-04 02:40:00,
2013-04-03 22:45:00,29.0,18.7,30.37,WSW,239,2.3,4.6,65,0.00,CLR,,0.00,WeatherDisplay:10.37,2013-04-04 02:45:00,
2013-04-03 22:50:00,28.8,18.9,30.36,SW,219,4.1,5.8,66,0.00,CLR,,0.00,WeatherDisplay:10.37,2013-04-04 02:50:00,
2013-04-03 22:55:00,28.8,18.9,30.37,SW,218,4.3,6.9,66,0.00,CLR,,0.00,WeatherDisplay:10.37,2013-04-04 02:55:00,
2013-04-03 23:00:00,28.8,18.5,30.37,SW,230,4.0,6.9,65,0.00,CLR,,0.00,WeatherDisplay:10.37,2013-04-04 03:00:00,
2013-04-03 23:05:00,28.7,18.8,30.37,SW,236,3.9,5.8,66,0.00,CLR,,0.00,WeatherDisplay:10.37,2013-04-04 03:05:00,
2013-04-03 23:10:00,28.7,18.8,30.36,SW,223,2.7,4.6,66,0.00,CLR,,0.00,WeatherDisplay:10.37,2013-04-04 03:10:00,
2013-04-03 23:15:00,28.6,18.3,30.36,SW,223,3.4,5.8,65,0.00,CLR,,0.00,WeatherDisplay:10.37,2013-04-04 03:15:00,
2013-04-03 23:20:00,28.5,18.2,30.36,SW,229,3.2,5.8,65,0.00,CLR,,0.00,WeatherDisplay:10.37,2013-04-04 03:20:00,
2013-04-03 23:25:00,28.4,18.1,30.36,WSW,237,3.0,4.6,65,0.00,CLR,,0.00,WeatherDisplay:10.37,2013-04-04 03:25:00,
2013-04-03 23:30:00,28.4,18.1,30.35,SW,229,3.5,5.8,65,0.00,CLR,,0.00,WeatherDisplay:10.37,2013-04-04 03:30:00,
2013-04-03 23:35:00,28.3,18.4,30.35,SW,229,1.6,3.5,66,0.00,CLR,,0.00,WeatherDisplay:10.37,2013-04-04 03:35:00,
2013-04-03 23:40:00,28.2,18.3,30.36,SW,230,2.6,3.5,66,0.00,CLR,,0.00,WeatherDisplay:10.37,2013-04-04 03:40:00,
2013-04-03 23:45:00,28.0,18.5,30.35,SW,229,2.4,4.6,67,0.00,CLR,,0.00,WeatherDisplay:10.37,2013-04-04 03:45:00,
2013-04-03 23:50:00,27.9,18.4,30.35,SW,229,2.3,2.3,67,0.00,CLR,,0.00,WeatherDisplay:10.37,2013-04-04 03:50:00,
2013-04-03 23:55:00,27.8,18.3,30.35,SW,232,0.5,2.3,67,0.00,CLR,,0.00,WeatherDisplay:10.37,2013-04-04 03:55:00,